DECAYED

CZ-6A DEB, 55890 (Decayed)

Orbit data source: Space-Track

CZ-6A DEB, 55890 was space debris in SSO originally from a launch on Fri, 11 Nov 2022 UTC launched from the Taiyaun Space Center, China (TSC). Debris objects in space refer to the collection of defunct objects orbiting the Earth. Examples of debris include non-operational satellites, rocket bodies, and fragments generated from explosions, collisions, or faulty payload assembly.

Not visible in the next 10 days
Identifier
55890, 2022-151AAN
Orbit
Decayed
Last TLE update
5 months ago
Origin
Manufacturer
SAST
Mission
Decayed spacecraft
Bus & Motor
Unknown
Mass
Unknown
Launch date (UTC)
2022-11-11 (3 years ago)
Launch vehicle
Unknown
Launch site
Taiyaun Space Center, China (TSC)
Object type
Payload
Rocket body
Debris
Shape & HBR
Unknown
Radar Cross Section
Small (<0.1 m²)

Expand to show TLE details & history

TLE from 5 months ago
0 CZ-6A DEB
1 55890U 22151AAN 24359.66483767  .06438407  00000-0  34020-1 0  9990
2 55890  98.6380  53.1959 0014508 354.5667   5.5435 15.75917223 40625
Epoch: 2024-12-24T15:57Z
Definitive object data (Epoch: 2024-12-24T15:57:21.974Z)
Latitude
Longitude
80.18466°
Altitude
335.443 km
Speed
7.713 km/s
True Right ascension
03h 32m 47s
True Declination
0° 00' 00"
Sunlit
Object was in full shadow at TLE epoch
Visualization observer readout
Visualization observer readout
Orbital elements
Apogee altitude
348.718 km
Perigee altitude
329.227 km
Semi-major axis
6,717.109 km
Eccentricity
0.0014508
Inclination
98.638°
RAAN
53.1959°
Arg. of periapsis
354.5667°
True anomaly
5.55959°
Mean anomaly
5.5435°
Eccentric anomaly
5.55154°
Mean motion
3.94248 °/min
BSTAR
0.03402
Orbital period
91.31 mins
Loading maneuver chart data...
Loading SW <> Apogee altitude chart data...
Loading historical data...
Loading historical data...
Loading historical data...
Loading historical data...
Loading historical data...
Loading historical data...
Loading historical data...

CZ-6A DEB Visibility forecast

Observer location: undefined°, undefined°

This satellite is decayed
Span
Click to sort rows by Start time (UTC) header in descending order
Start Az.
Max El. time (UTC)
Max El. Az.
Max El.
End time (UTC)
End Az.
|